Location: Pedholt
(56.0260°N, 10.2097°E)
Time: 01:13:17
(UTC+00:00)

A-11 Canister half - Pass Details

Date: 03 August 2021
Orbit: 1514 x 1685 km, 47.2° (Epoch: 16 September)

Event Time Altitude Azimuth Distance (km) Brightness Sun altitude
Rises 14:04:18 0° 184° (S) 4,756 12.0 41.1°
Reaches altitude 10° 14:08:47 10° 166° (SSE) 3,808 11.4 40.6°
Maximum altitude 14:14:21 17° 130° (SE) 3,319 10.8 39.9°
Drops below altitude 10° 14:20:00 10° 94° (E) 3,895 10.8 39.3°
Sets 14:24:38 0° 77° (ENE) 4,911 11.2 38.7°
